Regional Weather Roundup
Issued by NWS Portland, ME

Current Version | Previous Version | Text Only | Print | Product List | Glossary Off
Versions: 1 2 3 4 5 6 7 8 9 10 11 12 13 14 15 16 17 18 19 20 21 22 23 24 25 26 27 28 29 30 31 32 33 34 35 36 37 38 39 40 41 42 43 44 45 46 47 48 49 50
227 ASUS41 KGYX 110605 RWRGYX WEATHER ROUNDUP FOR MAINE AND NEW HAMPSHIRE NATIONAL WEATHER SERVICE GRAY ME 100 AM EST TUE DEC 11 2018 MEZ002-005-006-010-012-015-018-020-021-024-026-027-029-110700- MAINE CITY SKY/WX TMP DP RH WIND PRES REMARKS PORTLAND FAIR 15 7 70 N6 30.19S 6HR MIN TEMP: 14; 6HR MAX TEMP: 22; SANFORD FAIR 5 2 87 CALM 30.18R BAR HARBOR FAIR 10 5 80 W3 30.18S WISCASSET FAIR 8 5 87 CALM 30.20S 6HR MIN TEMP: 8; 6HR MAX TEMP: 20; ROCKLAND FAIR 11 5 77 NW3 30.19R FRYEBURG FAIR 0 -3 87 CALM 30.16R 6HR MIN TEMP: 0; 6HR MAX TEMP: 12; LEWISTONAUBURN FAIR 6 2 83 CALM 30.17S AUGUSTA FAIR 10 4 76 CALM 30.17R 6HR MIN TEMP: 10; 6HR MAX TEMP: 17; WATERVILLE FAIR 5 -2 72 MISG 30.14R BANGOR FAIR 8 3 80 SW5 30.16S 6HR MIN TEMP: 7; 6HR MAX TEMP: 17; GREENVILLE N/A 6 1 80 NW16 30.01S WCI -12 6HR MIN TEMP: 6; 6HR MAX TEMP: 11; MILLINOCKET FAIR 10 2 69 NW3 30.13S 6HR MIN TEMP: 9; 6HR MAX TEMP: 14; HOULTON FAIR 6 2 83 NW3 30.10R 6HR MIN TEMP: 3; 6HR MAX TEMP: 14; PRESQUE ISLE FAIR -9 -14 78 CALM 30.12R 6HR MIN TEMP: -11; 6HR MAX TEMP: 9; FRENCHVILLE FAIR 3 -3 76 W10 30.05R WCI -12 6HR MIN TEMP: 2; 6HR MAX TEMP: 10; CARIBOU FAIR 1 -5 75 CALM 30.09R 6HR MIN TEMP: 0; 6HR MAX TEMP: 10; $$ NHZ002-005-008-009-011-012-014-110700- NEW HAMPSHIRE CITY SKY/WX TMP DP RH WIND PRES REMARKS PORTSMOUTH CLEAR 18 9 67 NW3 30.17S ROCHESTER FAIR 13 9 84 NW3 30.16S 6HR MIN TEMP: 13; 6HR MAX TEMP: 24; NASHUA FAIR 16 13 88 CALM 30.19S MANCHESTER FAIR 18 10 71 CALM 30.16S 6HR MIN TEMP: 17; 6HR MAX TEMP: 27; CONCORD FAIR 9 6 88 CALM 30.17S 6HR MIN TEMP: 9; 6HR MAX TEMP: 23; LACONIA FAIR 10 6 84 CALM 30.16R PLYMOUTH FAIR 12 7 82 CALM 30.15S BERLIN FAIR -6 -10 83 CALM 30.12F 6HR MIN TEMP: -6; 6HR MAX TEMP: 5; WHITEFIELD FAIR -3 -8 79 CALM 30.13S 6HR MIN TEMP: -3; 6HR MAX TEMP: 5; JAFFREY FAIR 11 9 92 S5 30.11F 6HR MIN TEMP: 11; 6HR MAX TEMP: 24; KEENE FAIR 11 8 88 SW3 30.18S LEBANON FAIR 10 4 76 CALM 30.17S 6HR MIN TEMP: 10; 6HR MAX TEMP: 21; MT WASHINGTON PTCLDY 14 -17 24 W20 N/A WCI -3 6HR MIN TEMP: 2; 6HR MAX TEMP: 13; $$ VTZ005-007-008-110700- VERMONT CITY SKY/WX TMP DP RH WIND PRES REMARKS ST JOHNSBURY N/A 2 -2 83 MISG 30.16F MONTPELIER FAIR 2 0 91 CALM 30.15F BURLINGTON FAIR 8 4 83 E5 30.18F $$ MAZ007-012-024-CTZ003-RIZ002-NYZ038-NYZ072-110700- SOUTHERN NEW ENGLAND AND NY CITY SKY/WX TMP DP RH WIND PRES REMARKS BOSTON FAIR 26 10 50 NW10 30.19R WCI 16 WORCESTER FAIR 20 10 65 NW5 30.12R NANTUCKET MOCLDY 31 21 66 N6 30.15R PROVIDENCE FAIR 22 15 75 N3 30.19R HARTFORD FAIR 17 14 88 NW3 30.19R ALBANY FAIR 19 11 70 CALM 30.20S NEW YORK CITY FAIR 32 17 54 NE5 30.19S $$ ANZ081-ANZ082-ANZ150-NHZ014-MEZ023>029-110700- COASTAL MARINE OBSERVATIONS STATION/POSITION TIME TEMP WIND PRES WAVE AIR SEA DIR/SP/G HT/PER (UTC) (F) (DEG/KT/KT) (MB) (FT/S) MOUNT DESERT ROC 0600 21 340/ 10/ 13 1021.4F MATINICUS ROCK 0500 21 360/ 13/ 16 1020.9F ISLE OF SHOALS 0500 28 40/ 8/ 11 1021.4F JEFFREYS LEDGE 0538 46 N/A 4/ 5 CASHES LEDGE BUO 0550 25 46 1021.5R 3/ 5 $$ .............KEY.............. WCI - WIND CHILL TC - TEMPERATURE IN CELSIUS VSB - VISIBILITY IN MILES HX - HEAT INDEX FAIR- INDICATES FEW OR NO CLOUDS BELOW 12,000 FT, WITH NO SIGNIFICANT WEATHER AND/OR OBSTRUCTIONS TO VISIBILITY.

USA.gov is the U.S. government's official web portal to all federal, state and local government web resources and services.